Stations météo

Publicité
Trappes, France (7145): Température de l'air & dewpoint: 13.09.2018 16:00:00 - 19.09.2018 16:00:00 (CEST)Trappes, France (7145): Température de l'air 5cm: 13.09.2018 16:00:00 - 19.09.2018 16:00:00 (CEST)Trappes, France (7145): Température de l'air -20cm & Température de l'air -100cm: 13.09.2018 16:00:00 - 19.09.2018 16:00:00 (CEST)Trappes, France (7145): Vitesse du vent & gusts: 13.09.2018 16:00:00 - 19.09.2018 16:00:00 (CEST)Trappes, France (7145): Direction du vent: 13.09.2018 16:00:00 - 19.09.2018 16:00:00 (CEST)Trappes, France (7145): reduced air pressure: 13.09.2018 16:00:00 - 19.09.2018 16:00:00 (CEST)Trappes, France (7145): visibility: 13.09.2018 16:00:00 - 19.09.2018 16:00:00 (CEST)Trappes, France (7145): Ensoleillement: 13.09.2018 16:00:00 - 19.09.2018 16:00:00 (CEST)Trappes, France (7145): Quantités de précipitations: 13.09.2018 16:00:00 - 19.09.2018 16:00:00 (CEST)
Date & Time tt [°C] td [°C] tt 5cm [°C] tt -20cm [°C] tt -100cm [°C] ff [km/h] ff [knt] fx [km/h] fx [knt] dd ppp [hPa] vv [km] sd [min] rr [mm]
19.09.2018 16:00:00 23,4 12,7 26,9 18,2 17,2 16 9 34 19 WSW 1019,1 20 57 0,0
19.09.2018 15:00:00 23,1 12,7 26,5 18,0 17,2 19 10 36 20 SW 1019,2 20 54 0,0
19.09.2018 14:00:00 22,7 13,2 23,5 17,8 17,2 17 9 36 19 WSW 1019,5 20 50 0,0
19.09.2018 13:00:00 21,0 13,4 22,1 17,6 17,2 16 9 34 18 WSW 1020,0 19 27 0,0
19.09.2018 12:00:00 19,6 13,1 20,8 17,6 17,2 19 10 37 20 WSW 1019,9 20 23 0,0
19.09.2018 11:00:00 19,5 14,3 18,3 17,5 17,2 16 9 35 19 SW 1019,7 20 46 0,0
19.09.2018 10:00:00 17,2 14,1 18,3 17,6 17,2 10 6 21 12 SSW 1019,3 19 44 0,0
19.09.2018 09:00:00 16,0 14,0 14,6 17,7 17,2 8 4 16 9 S 1018,9 19 27 0,0
19.09.2018 08:00:00 15,4 13,4 14,1 17,8 17,2 6 3 12 6 SSW 1018,5 19 0 0,0
19.09.2018 07:00:00 15,8 13,5 14,2 17,9 17,2 4 2 13 7 S 1018,1 20 0 0,0
19.09.2018 06:00:00 16,9 13,4 15,9 18,0 17,2 7 4 18 10 WSW 1018,0 20 0 0,0
19.09.2018 05:00:00 17,5 14,0 16,2 18,1 17,2 11 6 21 11 WSW 1018,0 20 0 0,0
19.09.2018 04:00:00 16,8 15,3 15,3 18,2 17,2 4 2 8 4 SW 1017,9 20 0 0,0
19.09.2018 03:00:00 17,1 15,4 15,5 18,3 17,2 3 2 12 6 SSW 1017,5 20 0 0,0
19.09.2018 02:00:00 18,1 16,1 16,6 18,4 17,2 8 4 16 8 SW 1017,4 20 0 0,0
19.09.2018 01:00:00 17,8 16,3 16,0 18,5 17,2 6 4 13 7 SSW 1017,5 20 0 0,0
19.09.2018 00:00:00 17,9 16,4 16,4 18,6 17,2 4 2 11 6 SSW 1017,0 20 0 0,0
18.09.2018 23:00:00 18,4 16,6 16,4 18,7 17,2 4 2 9 5 S 1016,8 20 0 0,0
18.09.2018 22:00:00 19,2 16,4 17,8 18,8 17,2 4 2 12 6 S 1016,9 20 0 0,0
18.09.2018 21:00:00 20,4 14,3 16,9 18,9 17,2 6 3 10 6 S 1016,3 20 0 0,0
18.09.2018 20:00:00 21,8 14,9 20,3 18,8 17,2 4 2 14 7 SSW 1015,5 20 35 0,0
18.09.2018 19:00:00 23,0 16,3 24,7 18,6 17,2 7 4 22 12 S 1015,1 20 60 0,0
18.09.2018 18:00:00 23,8 16,3 25,0 18,4 17,2 11 6 28 15 SSW 1015,3 20 38 0,0
18.09.2018 17:00:00 22,9 16,2 24,2 18,2 17,2 12 7 27 15 SSW 1015,6 20 16 0,0
18.09.2018 16:00:00 22,1 15,9 24,0 18,0 17,2 12 6 26 14 SW 1016,0 20 2 0,0
18.09.2018 15:00:00 21,7 15,8 22,6 17,8 17,2 14 8 28 15 SW 1015,8 20 1 0,0
18.09.2018 14:00:00 21,3 15,8 21,2 17,6 17,2 12 6 31 17 SSW 1015,8 20 1 0,0
18.09.2018 13:00:00 21,4 15,7 19,8 17,3 17,2 16 9 33 18 WSW 1015,5 17 29 0,0
18.09.2018 12:00:00 22,3 15,4 23,3 17,1 17,2 16 9 32 17 SW 1015,1 20 43 0,0
18.09.2018 11:00:00 20,7 15,5 21,6 17,1 17,2 11 6 24 13 SW 1014,7 20 26 0,0
18.09.2018 10:00:00 18,9 15,8 17,8 17,0 17,2 11 6 21 12 SW 1014,2 18 25 0,0
18.09.2018 09:00:00 17,1 14,7 16,5 17,1 17,2 9 5 26 14 WSW 1014,2 15 0 0,0
18.09.2018 08:00:00 16,8 13,9 16,1 17,2 17,2 14 8 24 13 WSW 1013,8 20 0 0,0
18.09.2018 07:00:00 17,6 13,1 16,0 17,2 17,2 7 4 13 7 WSW 1012,8 20 0 0,0
18.09.2018 06:00:00 18,1 12,8 16,3 17,3 17,2 7 4 17 9 SW 1012,2 20 0 0,0
18.09.2018 05:00:00 19,2 12,2 17,1 17,5 17,3 9 5 18 10 SW 1011,7 20 0 0,0
18.09.2018 04:00:00 19,1 10,4 16,9 17,6 17,3 8 5 15 8 SSW 1011,6 20 0 0,0
18.09.2018 03:00:00 19,5 9,1 17,0 17,7 17,2 5 3 14 7 SSW 1011,8 20 0 0,0
18.09.2018 02:00:00 19,9 8,6 18,0 17,9 17,2 5 3 13 7 S 1011,9 20 0 0,0
18.09.2018 01:00:00 19,9 8,2 14,1 18,0 17,3 5 3 9 5 S 1012,2 20 0 0,0
18.09.2018 00:00:00 18,6 8,0 12,2 18,2 17,3 2 1 8 4 SSE 1012,4 20 0 0,0
17.09.2018 23:00:00 17,8 8,9 12,1 18,4 17,3 0 0 6 3 N 1012,7 20 0 0,0
17.09.2018 22:00:00 18,2 8,5 11,9 18,5 17,3 3 1 4 2 SE 1013,0 20 0 0,0
17.09.2018 21:00:00 20,0 8,0 14,3 18,5 17,3 0 0 6 3 N 1013,2 20 0 0,0
17.09.2018 20:00:00 25,1 7,2 20,2 18,4 17,3 3 2 11 6 S 1012,9 20 37 0,0
17.09.2018 19:00:00 28,0 7,3 30,4 18,2 17,3 7 4 24 13 S 1013,0 20 60 0,0
17.09.2018 18:00:00 28,7 6,7 32,6 17,9 17,3 9 5 24 13 SSW 1013,4 20 60 0,0
17.09.2018 17:00:00 28,4 5,9 33,6 17,5 17,3 10 5 23 12 S 1014,1 20 60 0,0
17.09.2018 16:00:00 28,0 5,5 32,9 17,1 17,3 11 6 29 15 SSE 1014,8 20 60 0,0
17.09.2018 15:00:00 26,9 5,8 32,1 16,6 17,3 11 6 25 13 S 1015,8 20 60 0,0
17.09.2018 14:00:00 25,9 7,9 31,1 16,2 17,3 9 5 25 13 S 1016,9 20 60 0,0
17.09.2018 13:00:00 24,4 7,9 30,0 15,8 17,3 11 6 22 12 S 1017,8 20 60 0,0
17.09.2018 12:00:00 23,2 9,2 27,1 15,6 17,3 9 5 17 9 SSE 1018,6 20 60 0,0
17.09.2018 11:00:00 20,5 9,1 24,1 15,5 17,3 9 5 22 12 S 1019,3 20 60 0,0
17.09.2018 10:00:00 18,8 9,6 19,9 15,6 17,3 6 3 13 7 SSE 1019,3 20 60 0,0
17.09.2018 09:00:00 15,8 9,0 7,2 15,7 17,3 4 2 12 7 SE 1019,4 20 60 0,0
17.09.2018 08:00:00 9,7 7,8 4,4 15,9 17,3 4 2 8 4 SE 1019,8 20 6 0,0
17.09.2018 07:00:00 9,5 7,3 4,8 16,1 17,3 0 0 4 2 N 1020,0 20 0 0,0
17.09.2018 06:00:00 11,3 7,8 4,4 16,4 17,3 4 2 11 6 NW 1020,8 20 0 0,0
17.09.2018 05:00:00 9,2 7,1 4,6 16,6 17,4 0 0 4 2 N 1020,6 20 0 0,0
17.09.2018 04:00:00 9,7 7,6 4,6 16,9 17,4 0 0 2 1 N 1020,6 20 0 0,0
17.09.2018 03:00:00 10,6 7,8 5,1 17,1 17,3 0 0 4 2 N 1020,4 20 0 0,0
17.09.2018 02:00:00 10,7 7,8 5,2 17,3 17,4 0 0 0 0 N 1020,6 20 0 0,0
17.09.2018 01:00:00 12,0 8,7 6,7 17,5 17,4 0 0 2 1 N 1020,8 20 0 0,0
17.09.2018 00:00:00 12,9 8,8 7,8 17,8 17,4 0 0 3 1 N 1021,1 20 0 0,0
16.09.2018 23:00:00 13,4 9,3 8,1 17,9 17,4 0 0 2 1 N 1021,3 20 0 0,0
16.09.2018 22:00:00 15,3 9,6 9,6 18,1 17,4 0 0 0 0 N 1021,0 9 0 0,0
16.09.2018 21:00:00 17,8 10,4 12,4 18,1 17,4 2 1 8 4 NNW 1020,4 20 0 0,0
16.09.2018 20:00:00 20,4 8,7 17,4 18,1 17,4 0 0 7 4 N 1019,8 20 0 0,0
16.09.2018 19:00:00 22,7 7,3 22,2 17,9 17,4 5 3 9 5 WNW 1019,6 20 0 0,0
16.09.2018 18:00:00 23,1 7,2 23,8 17,7 17,4 5 3 8 4 S 1019,2 20 0 0,0
16.09.2018 17:00:00 23,4 7,1 25,9 17,4 17,4 5 3 12 6 S 1019,3 20 18 0,0
16.09.2018 16:00:00 23,8 6,6 27,2 16,9 17,4 5 3 14 8 SSE 1019,6 20 28 0,0
16.09.2018 15:00:00 23,7 6,9 27,2 16,5 17,4 5 3 18 10 WSW 1020,0 20 44 0,0
16.09.2018 14:00:00 23,2 7,3 28,8 16,1 17,4 7 4 21 11 SSW 1020,4 20 60 0,0
16.09.2018 13:00:00 21,8 8,7 25,4 15,7 17,4 8 4 16 9 S 1020,8 20 55 0,0
16.09.2018 12:00:00 20,7 9,0 25,1 15,5 17,4 6 3 15 8 SSE 1021,5 20 60 0,0
16.09.2018 11:00:00 19,2 9,1 21,0 15,4 17,4 6 3 15 8 S 1021,8 20 60 0,0
16.09.2018 10:00:00 16,5 9,2 18,0 15,4 17,4 5 3 11 6 SE 1022,2 20 60 0,0
16.09.2018 09:00:00 14,5 8,9 9,0 15,6 17,4 5 3 9 5 ESE 1022,3 20 60 0,0
16.09.2018 08:00:00 10,5 8,1 3,4 15,8 17,4 5 3 8 5 ESE 1022,3 20 7 0,0
16.09.2018 07:00:00 8,9 7,7 3,2 16,1 17,4 4 2 7 4 ESE 1022,4 20 0 0,0
16.09.2018 06:00:00 8,5 7,1 3,3 16,3 17,4 0 0 0 0 N 1022,8 20 0 0,0
16.09.2018 05:00:00 8,9 7,2 3,9 16,5 17,5 0 0 4 2 N 1023,0 20 0 0,0
16.09.2018 04:00:00 10,2 8,1 4,6 16,7 17,5 0 0 3 1 N 1023,3 20 0 0,0
16.09.2018 03:00:00 11,0 7,3 5,7 17,0 17,5 0 0 9 5 N 1023,5 20 0 0,0
16.09.2018 02:00:00 13,1 8,4 5,6 17,2 17,5 7 4 10 5 ESE 1023,4 20 0 0,0
16.09.2018 01:00:00 10,7 8,1 5,5 17,4 17,5 2 1 5 3 ESE 1024,5 20 0 0,0
16.09.2018 00:00:00 11,5 8,2 6,4 17,7 17,5 0 0 0 0 N 1025,0 20 0 0,0
15.09.2018 23:00:00 12,3 8,6 6,6 17,9 17,5 0 0 0 0 N 1025,1 20 0 0,0
15.09.2018 22:00:00 14,0 8,6 8,8 18,0 17,5 0 0 4 2 N 1025,3 20 0 0,0
15.09.2018 21:00:00 15,3 7,8 9,4 18,1 17,5 0 0 5 3 N 1024,9 20 0 0,0
15.09.2018 20:00:00 18,7 7,8 16,5 18,1 17,5 4 2 11 6 E 1024,3 20 41 0,0
15.09.2018 19:00:00 20,4 8,1 23,3 18,0 17,5 5 3 15 8 ESE 1024,2 20 58 0,0
15.09.2018 18:00:00 20,9 7,8 25,5 17,8 17,5 2 1 16 9 N 1024,2 20 56 0,0
15.09.2018 17:00:00 20,9 8,5 23,7 17,4 17,5 8 4 18 10 E 1024,5 20 38 0,0
15.09.2018 16:00:00 21,2 8,5 22,6 17,1 17,5 4 2 14 7 W 1024,8 20 22 0,0
15.09.2018 15:00:00 19,5 8,5 23,2 16,6 17,5 7 4 12 7 NNE 1025,5 20 46 0,0
15.09.2018 14:00:00 19,9 9,2 22,2 16,2 17,5 6 4 12 7 NNE 1025,9 20 60 0,0
15.09.2018 13:00:00 17,1 10,0 19,1 16,0 17,5 8 4 13 7 NE 1026,5 20 16 0,0
15.09.2018 12:00:00 18,1 10,9 22,6 15,7 17,5 4 2 11 6 NNW 1026,6 20 52 0,0
15.09.2018 11:00:00 16,4 11,3 18,4 15,7 17,5 4 2 12 6 NW 1026,7 20 60 0,0
15.09.2018 10:00:00 14,4 11,4 16,5 15,7 17,5 4 2 8 4 W 1026,6 20 57 0,0
15.09.2018 09:00:00 12,2 9,9 6,9 15,9 17,5 4 2 8 4 W 1026,3 20 60 0,0
15.09.2018 08:00:00 9,8 8,4 4,3 16,1 17,5 3 2 8 4 W 1026,1 20 5 0,0
15.09.2018 07:00:00 9,7 7,8 4,6 16,3 17,5 0 0 9 5 N 1025,7 20 0 0,0
15.09.2018 06:00:00 10,3 8,1 6,6 16,5 17,5 3 2 9 5 NW 1025,2 20 0 0,0
15.09.2018 05:00:00 10,7 7,9 7,6 16,7 17,5 4 2 9 5 W 1025,1 20 0 0,0
15.09.2018 04:00:00 11,0 7,9 5,9 17,0 17,5 5 3 8 4 W 1025,0 20 0 0,0
15.09.2018 03:00:00 10,9 7,9 6,4 17,2 17,5 3 2 8 4 NW 1025,0 20 0 0,0
15.09.2018 02:00:00 11,8 7,9 8,2 17,5 17,6 3 1 9 5 NW 1025,1 20 0 0,0
15.09.2018 01:00:00 12,2 7,7 9,6 17,7 17,6 4 2 13 7 NNW 1024,9 20 0 0,0
15.09.2018 00:00:00 12,4 7,1 9,4 17,9 17,6 5 3 11 6 NW 1024,5 20 0 0,0
14.09.2018 23:00:00 12,9 7,1 10,5 18,1 17,6 4 2 12 6 NW 1024,2 20 0 0,0
14.09.2018 22:00:00 14,2 7,3 12,1 18,3 17,6 6 3 13 7 NW 1024,0 20 0 0,0
14.09.2018 21:00:00 15,2 7,2 12,9 18,3 17,6 6 3 20 11 NNW 1023,3 20 0 0,0
14.09.2018 20:00:00 16,6 7,5 15,4 18,3 17,6 11 6 26 14 NW 1022,7 20 44 0,0
14.09.2018 19:00:00 18,4 8,4 20,3 18,2 17,6 11 6 26 14 NNW 1022,0 20 56 0,0
14.09.2018 18:00:00 20,4 6,0 24,3 18,0 17,6 9 5 24 13 WNW 1021,6 20 57 0,0
14.09.2018 17:00:00 20,2 6,9 23,1 17,8 17,6 11 6 27 15 WNW 1021,7 20 53 0,0
14.09.2018 16:00:00 19,9 7,3 23,4 17,5 17,6 11 6 26 14 WNW 1021,8 20 48 0,0
14.09.2018 15:00:00 19,3 7,7 21,5 17,2 17,6 11 6 25 13 W 1022,0 20 36 0,0
14.09.2018 14:00:00 18,2 7,6 21,4 16,9 17,6 10 6 25 13 W 1022,4 20 38 0,0
14.09.2018 13:00:00 18,4 7,8 20,8 16,7 17,6 12 6 24 13 W 1022,6 20 48 0,0
14.09.2018 12:00:00 17,2 9,4 22,2 16,5 17,6 7 4 16 9 NW 1022,9 20 55 0,0
14.09.2018 11:00:00 16,0 10,1 17,2 16,5 17,6 7 4 16 8 NW 1022,9 20 58 0,0
14.09.2018 10:00:00 13,8 10,0 14,5 16,6 17,6 6 4 13 7 NNW 1022,8 20 42 0,0
14.09.2018 09:00:00 12,2 9,9 9,4 16,7 17,6 5 3 11 6 NNW 1022,7 20 56 0,0
14.09.2018 08:00:00 10,2 9,3 8,2 16,9 17,6 6 4 12 6 NNW 1022,7 12 10 0,0
14.09.2018 07:00:00 10,2 9,4 7,9 17,1 17,6 6 3 10 5 NNW 1022,4 13 0 0,0
14.09.2018 06:00:00 10,6 9,7 8,0 17,4 17,6 4 2 9 5 NW 1022,3 12 0 0,0
14.09.2018 05:00:00 11,1 10,0 7,9 17,6 17,6 4 2 8 5 NW 1022,5 14 0 0,0
14.09.2018 04:00:00 11,8 10,0 8,4 17,7 17,6 2 1 10 5 NW 1022,6 20 0 0,0
14.09.2018 03:00:00 12,5 10,4 10,6 17,9 17,6 4 2 14 7 NNW 1022,6 20 0 0,0
14.09.2018 02:00:00 13,0 10,7 11,7 18,0 17,6 8 4 13 7 NNW 1022,8 20 0 0,0
14.09.2018 01:00:00 14,5 11,5 13,6 18,1 17,6 7 4 12 7 NNW 1022,7 20 0 0,0
14.09.2018 00:00:00 15,2 12,3 14,3 18,2 17,6 4 2 7 4 NNW 1022,4 20 0 0,0
13.09.2018 23:00:00 15,6 12,2 15,0 18,3 17,6 3 2 8 4 N 1022,3 20 0 0,0
13.09.2018 22:00:00 15,9 12,3 15,3 18,4 17,6 2 1 10 5 N 1022,3 20 0 0,0
13.09.2018 21:00:00 16,3 12,3 16,1 18,4 17,6 8 5 16 9 NNE 1021,8 20 0 0,0
13.09.2018 20:00:00 16,6 12,5 16,4 18,5 17,6 5 3 13 7 NNE 1021,3 20 0 0,0
13.09.2018 19:00:00 16,8 12,5 17,3 18,4 17,6 6 4 14 7 N 1021,3 20 0 0,0
13.09.2018 18:00:00 16,2 12,9 16,8 18,4 17,6 7 4 18 10 NNE 1021,3 19 0 0,0
13.09.2018 17:00:00 16,4 13,3 17,3 18,4 17,6 9 5 24 13 N 1021,5 12 0 0,0
13.09.2018 16:00:00 16,6 13,3 18,1 18,3 17,6 10 5 18 10 N 1021,4 8 0 0,0

tt = Température de l'air
td = dewpoint
tt 5cm = Température de l'air 5cm
tt -20cm = Température de l'air -20cm
tt -100cm = Température de l'air -100cm
ff = Vitesse du vent
fx = gusts
dd = Direction du vent
ppp = reduced air pressure
vv = visibility
sd = Ensoleillement
rr = Quantités de précipitations

stations d'obs. à proximité